SCP
0 -0 0 -0 0 0 0 0 0 0 -0 0 0 0 0 0 0 0 0 0 0 0 0 0 0 0 0 0 0 0 0 0 0 0 0 0 0 0 0 0 0 0 0
0 0 0 -0 -0 -0 -0 0 -0 -0 -0 0 0 0 0 0 0 0 0 0 0 0 0 0 0 0 0 0 0 0 0 0 0 0 0 0 0 0 0 0 0 0 0
-0 -0 0 0 0 0 0 -0 -0 -0 0 0 0 0 0 0 0 0 0 0 0 0 0 0 0 0 0 0 0 0 0 0 0 0 0 0 0 0 0 0 0 0 0
0 -0 -0 -0 -0 -0 -0 -0 -0 -0 -0 0 0 0 0 0 0 0 0 0 0 0 0 0 0 0 0 0 0 0 0 0 0 0 0 0 0 0 0 0 0 0 0
0 0 0 0 0 0 -0 -0 0 0 0 0 0 0 0 0 0 0 0 0 0 0 0 0 0 0 0 0 0 0 0 0 0 0 0 0 0 0 0 0 0 0 0
0 0 0 0 0 0 0 0 0 0 0 0 0 0 0 0 0 0 0 0 0 0 0 0 0 0 0 0 0 0 0 0 0 0 0 0 0 0 0 0 0 0 0
0 0 0 0 0 0 0 0 0 0 0 0 0 0 0 0 0 0 0 0 0 0 0 0 0 0 0 0 0 0 0 0 0 0 0 0 0 0 0 0 0 0 0
0 0 0 0 0 0 0 0 0 0 0 0 0 0 0 0 0 0 0 0 0 0 0 0 0 0 0 0 0 0 0 0 0 0 0 0 0 0 0 0 0 0 0
0 0 0 0 0 0 0 0 0 0 0 0 0 0 0 0 0 0 0 0 0 0 0 0 0 0 0 0 0 0 0 0 0 0 0 0 0 0 0 0 0 0 0
0 0 0 0 0 0 0 0 0 0 0 0 0 0 0 0 0 0 0 0 0 0 0 0 0 0 0 0 0 0 0 0 0 0 0 0 0 0 0 0 0 0 0
0 0 0 0 0 0 0 0 0 0 0 0 0 0 0 0 0 0 0 0 0 0 0 0 0 0 0 0 0 0 0 0 0 0 0 0 0 0 0 0 0 0 0
0 0 0 0 0 0 0 0 0 0 0 0 0 0 0 0 0 0 0 0 0 0 0 0 0 0 0 0 0 0 0 0 0 0 0 0 0 0 0 0 0 0 0
0 0 0 0 0 0 0 0 0 0 0 0 0 0 0 0 0 0 0 0 0 0 0 0 0 0 0 0 0 0 0 0 0 0 0 0 0 0 0 0 0 0 0
0 0 0 0 0 0 0 0 0 0 0 0 0 0 0 0 0 0 0 0 0 0 0 0 0 0 0 0 0 0 0 0 0 0 0 0 0 0 0 0 0 0 0
0 0 0 0 0 0 0 0 0 0 0 0 0 0 0 0 0 0 0 0 0 0 0 0 0 0 0 0 0 0 0 0 0 0 0 0 0 0 0 0 0 0 0
0 0 0 0 0 0 0 0 0 0 0 0 0 0 0 0 0 0 0 0 0 0 0 0 0 0 0 0 0 0 0 0 0 0 0 0 0 0 0 0 0 0 0
0 0 0 0 0 0 0 0 0 0 0 0 0 0 0 0 0 -0 -0 -0 0 0 0 0 0 0 0 0 0 0 0 0 0 0 0 0 0 0 0 0 0 0 0
0 0 0 0 0 0 0 0 0 0 0 0 0 0 0 0 0 0 -0 0 0 0 0 0 0 0 0 0 0 0 0 0 0 0 0 0 0 0 0 0 0 0 0
0 0 0 0 0 0 0 0 0 0 0 0 0 0 0 0 0 0 -0 0 0 0 0 0 0 0 0 0 0 0 0 0 0 0 0 0 0 0 0 0 0 0 0
0 0 0 0 0 0 0 0 0 0 0 0 0 0 0 0 0 0 0 0 0 0 0 0 0 0 0 0 0 0 0 0 0 0 0 0 0 0 0 0 0 0 0
0 0 0 0 0 0 0 0 0 0 0 0 0 0 0 0 0 0 0 0 0 0 0 0 0 0 0 0 0 0 0 0 0 0 0 0 0 0 0 0 0 0 0
0 0 0 0 0 0 0 0 0 0 0 0 0 0 0 0 0 0 0 -0 -0 0 0 0 0 0 0 0 0 0 0 0 0 0 0 0 0 0 0 0 0 0 0
0 0 0 0 0 0 0 0 0 0 0 0 0 0 0 0 0 0 0 0 0 0 0 0 0 0 0 0 0 0 0 0 0 0 0 0 0 0 0 0 0 0 0
0 0 0 0 0 0 0 0 0 0 0 0 0 0 0 0 0 0 0 0 0 0 0 0 0 0 0 0 0 0 0 0 0 0 0 0 0 0 0 0 0 0 0
0 0 0 0 0 0 0 0 0 0 0 0 0 0 0 0 0 0 0 0 0 0 0 0 0 0 0 0 0 0 0 0 0 0 0 0 0 0 0 0 0 0 0
0 0 0 0 0 0 0 0 0 0 0 0 0 0 0 0 0 0 0 0 0 0 0 0 0 0 0 0 0 0 0 0 0 0 0 0 0 0 0 0 0 0 0
Wind_Speed_500mb
84 84 84 85 85 82 77 68 66 65 60 54 52 53 53 47 41 37 36 29 26 26 29 30 34 34 35 34 31 32 24 15 23 35 29 28 21 16 20 18 16 14 14
65 65 65 62 61 62 57 55 51 51 47 49 46 45 40 39 38 37 34 28 25 26 29 23 26 25 18 18 15 14 17 11 22 35 38 32 23 21 18 15 14 12 10
55 56 57 61 57 54 53 49 45 42 39 37 37 36 33 34 33 31 28 25 24 24 25 22 24 20 17 16 12 11 11 14 20 28 39 32 27 21 17 14 12 11 9
44 47 51 54 51 48 44 39 37 36 35 37 36 32 29 26 24 23 23 22 22 21 20 18 17 17 17 15 12 8 9 12 18 29 30 31 26 24 17 12 12 11 10
39 40 43 42 41 39 37 35 33 32 32 31 28 26 25 23 22 22 19 18 17 15 14 13 13 13 13 10 9 8 8 7 15 20 25 26 23 22 19 16 13 13 15
35 38 37 35 36 36 35 35 33 32 30 28 24 23 21 19 18 19 19 20 18 16 15 16 15 13 10 7 7 7 8 10 11 16 17 18 18 18 17 15 18 15 13
30 31 32 31 30 30 31 30 30 30 31 29 26 23 21 18 16 16 16 15 15 15 14 14 13 13 12 11 9 6 5 6 9 10 10 13 13 13 12 13 17 20 12
20 24 29 35 39 42 43 42 40 36 34 32 30 25 22 19 15 16 17 17 16 16 16 15 14 12 10 10 10 7 5 5 7 7 9 10 10 12 12 12 13 15 17
20 24 28 31 32 32 33 36 38 39 37 34 32 29 25 22 18 15 15 15 13 12 11 11 11 11 11 9 8 6 7 8 9 8 7 7 8 10 13 16 18 19 18
26 29 32 34 35 37 37 36 36 36 37 37 36 33 29 25 21 17 17 16 15 14 15 14 11 9 7 7 6 8 7 9 10 9 8 8 9 9 13 20 20 14 15
25 30 33 38 41 43 45 44 43 42 40 39 36 31 26 22 19 15 17 14 14 14 14 15 14 9 7 6 4 4 8 11 10 11 11 12 14 15 15 18 20 13 5
23 27 33 37 39 39 41 42 42 41 40 37 35 32 29 24 23 18 19 13 12 15 13 13 15 12 10 9 7 8 9 11 10 10 12 15 18 21 24 25 23 18 13
19 26 31 34 37 41 43 42 42 40 39 36 37 35 30 24 22 23 9 13 13 14 12 9 12 10 10 9 8 8 9 10 10 11 13 15 19 20 22 21 18 15 13
17 23 29 34 38 41 44 45 44 41 34 33 33 36 24 23 28 26 15 13 12 16 18 14 7 8 6 7 6 5 5 6 8 12 13 17 19 19 19 16 14 11 11
15 21 28 33 38 43 44 42 40 37 31 26 27 26 26 22 31 29 20 17 11 11 16 15 9 7 4 5 5 3 2 5 7 9 12 18 19 17 16 14 11 9 11
14 21 27 33 37 40 40 40 38 36 31 22 22 16 19 23 28 27 22 20 18 13 14 14 14 11 6 3 3 3 3 4 7 7 10 19 18 15 14 10 7 6 8
12 19 27 35 38 36 34 33 31 29 30 28 22 6 5 19 24 26 23 18 19 14 6 12 14 11 6 1 4 3 4 3 4 6 11 18 20 16 13 7 2 3 9
9 17 26 33 32 33 35 35 29 28 27 23 21 16 17 28 27 25 21 16 15 13 7 10 12 7 5 4 5 5 5 4 5 6 11 20 20 18 13 9 4 5 10
7 17 23 28 27 29 30 26 23 26 28 26 22 21 20 25 28 25 20 13 12 12 11 9 6 4 5 5 5 6 6 5 6 7 11 18 23 20 16 11 8 8 11
6 10 16 21 21 25 23 20 20 24 25 23 22 21 22 19 19 18 15 12 12 11 10 9 8 6 5 6 6 7 7 7 7 7 10 15 21 23 20 16 14 12 13
4 4 10 16 17 20 18 17 17 18 21 23 22 23 21 20 18 16 14 13 13 13 12 10 7 5 6 8 9 9 9 8 7 7 9 13 19 22 22 20 18 15 14
8 3 6 12 11 12 12 12 13 16 19 21 23 24 25 26 23 20 17 14 13 12 10 9 9 8 8 9 9 9 10 10 9 9 9 12 15 20 21 21 19 17 15
13 7 2 9 7 6 6 9 12 15 17 20 20 21 22 22 21 20 18 16 15 14 12 9 9 10 10 10 9 9 10 11 11 12 11 12 15 18 19 19 17 15 15
19 12 4 11 6 4 4 5 8 11 14 17 17 18 20 21 19 18 16 14 12 12 12 12 10 9 10 10 9 9 11 11 11 12 13 14 14 17 17 15 14 14 14
23 16 10 13 10 6 7 7 6 7 10 14 18 19 19 18 17 16 16 14 12 10 9 8 8 9 9 8 8 10 11 11 10 10 10 10 11 12 12 12 12 12 12
28 20 15 15 14 10 9 7 8 7 9 12 15 17 18 20 20 18 17 15 14 12 10 9 8 7 7 7 8 9 9 8 8 8 8 9 9 9 9 9 9 10 10
Wind_Direction_500mb
74 73 72 72 71 69 69 67 64 61 62 62 57 52 56 63 65 66 67 65 72 82 82 78 84 90 94 111 124 131 137 136 158 162 175 168 157 150 144 145 135 132 134
68 68 68 70 72 70 68 68 64 62 63 63 68 70 70 67 65 65 65 68 65 63 66 72 78 79 90 103 122 148 169 180 184 177 172 167 164 161 155 150 147 139 137
52 51 53 52 54 54 55 53 53 53 54 53 53 55 59 60 57 56 57 58 57 58 60 56 62 73 86 91 112 140 157 169 192 186 175 175 170 168 163 158 159 149 147
44 43 41 39 40 39 39 38 33 33 33 35 34 35 40 44 50 49 43 41 47 55 61 61 65 61 59 66 72 93 128 166 186 185 180 176 177 169 168 175 178 171 157
34 33 31 26 22 20 20 23 21 18 20 20 19 20 18 11 21 25 28 32 29 26 32 42 58 62 65 58 65 88 105 139 167 181 178 179 183 184 184 191 189 179 175
8 9 12 14 17 17 17 15 11 11 8 6 2 360 355 357 5 7 6 4 7 12 15 21 26 33 43 51 72 96 116 135 160 179 186 193 198 198 202 208 202 179 160
7 14 18 21 21 20 19 13 8 3 359 352 351 348 346 350 353 355 358 4 6 6 8 9 10 20 27 31 36 56 124 158 173 187 204 201 203 204 206 206 205 202 195
17 19 15 13 12 11 8 5 2 358 354 348 347 348 346 344 334 341 345 351 352 353 354 353 355 3 18 22 28 34 66 135 145 161 176 186 184 189 192 176 183 194 182
34 32 28 22 16 10 4 360 354 350 347 344 345 344 341 340 337 327 323 332 337 347 357 356 347 347 358 11 38 53 87 109 126 130 138 145 157 170 167 164 161 160 149
43 36 30 24 18 14 8 1 354 345 339 336 335 332 329 326 329 341 334 335 340 2 4 8 7 8 8 357 29 76 116 108 107 105 115 122 134 154 158 163 159 156 141
41 34 26 19 15 10 5 359 353 346 340 334 330 330 334 333 333 342 351 347 347 1 14 24 33 39 27 25 65 68 105 111 98 98 102 111 119 126 140 157 165 174 144
35 27 21 14 7 3 0 356 351 345 339 334 334 336 336 337 352 14 28 3 1 359 14 23 25 31 20 23 39 43 84 98 104 115 119 129 128 125 122 123 129 129 117
26 20 11 3 360 358 356 354 351 349 346 348 350 347 347 350 345 354 354 4 357 351 352 4 25 27 33 35 43 73 110 128 135 139 137 142 138 136 132 130 125 114 92
13 9 0 357 357 357 355 354 352 351 355 353 356 2 357 347 343 345 349 328 345 344 343 351 29 30 46 56 57 76 110 129 146 147 152 161 157 151 140 133 121 105 83
2 3 354 354 356 356 355 354 353 353 353 346 350 354 3 348 341 343 354 330 308 304 331 357 22 29 40 73 73 58 91 144 161 161 165 169 168 162 151 143 125 90 57
1 356 352 353 357 358 357 353 355 355 352 341 338 345 333 335 347 347 352 349 333 333 308 329 333 345 355 52 114 135 137 174 169 168 176 172 173 172 160 154 124 76 39
1 354 353 355 359 1 3 1 0 358 356 349 350 336 313 301 332 342 347 347 339 330 318 303 301 314 310 270 157 168 179 174 188 188 181 177 181 181 177 169 156 18 9
358 359 357 358 1 8 9 5 2 5 3 358 349 322 289 294 314 327 336 337 340 337 308 279 298 301 264 231 200 190 195 192 214 217 200 191 190 191 195 202 236 325 349
20 4 3 359 8 14 8 359 359 13 10 8 4 345 321 304 315 322 329 335 338 338 332 325 316 292 264 232 207 205 204 205 223 233 220 207 205 208 213 226 254 301 330
64 8 2 356 10 19 9 359 3 15 11 14 13 5 344 340 338 334 341 340 331 327 329 319 319 313 294 266 243 233 229 224 225 239 233 221 215 218 225 237 256 284 309
130 338 0 350 6 17 7 351 2 14 5 16 16 7 2 358 353 346 336 333 326 320 317 307 298 292 274 265 258 252 246 241 244 247 242 233 223 223 229 240 255 273 294
171 232 346 336 0 13 4 348 356 13 7 8 15 16 12 6 359 353 347 340 329 322 317 311 303 293 279 267 263 268 267 265 256 252 249 242 232 230 232 240 252 269 285
188 213 336 311 336 360 350 335 3 9 3 358 9 16 18 18 11 3 354 346 341 335 329 325 313 300 289 279 271 270 274 278 282 278 265 253 243 235 236 243 253 266 282
196 204 212 274 291 320 303 328 357 1 357 348 356 7 15 14 12 5 1 356 348 342 335 327 319 309 300 288 282 286 287 285 285 281 275 266 257 246 240 244 251 263 278
201 202 209 253 266 272 271 274 316 342 348 345 348 358 2 6 7 6 2 359 356 354 349 340 333 321 309 298 301 305 303 298 294 299 294 281 264 249 243 241 250 265 278
204 201 208 240 253 249 252 261 283 308 342 345 343 351 355 356 358 359 2 1 357 356 355 351 345 335 317 314 318 315 313 310 307 305 309 305 289 272 259 259 265 270 280
Wind_Speed_850mb
84 84 84 85 85 82 77 68 66 65 60 54 52 53 53 47 41 37 36 29 26 26 29 30 34 34 35 34 31 32 24 15 23 35 29 28 21 16 20 18 16 14 14
65 65 65 62 61 62 57 55 51 51 47 49 46 45 40 39 38 37 34 28 25 26 29 23 26 25 18 18 15 14 17 11 22 35 38 32 23 21 18 15 14 12 10
55 56 57 61 57 54 53 49 45 42 39 37 37 36 33 34 33 31 28 25 24 24 25 22 24 20 17 16 12 11 11 14 20 28 39 32 27 21 17 14 12 11 9
44 47 51 54 51 48 44 39 37 36 35 37 36 32 29 26 24 23 23 22 22 21 20 18 17 17 17 15 12 8 9 12 18 29 30 31 26 24 17 12 12 11 10
39 40 43 42 41 39 37 35 33 32 32 31 28 26 25 23 22 22 19 18 17 15 14 13 13 13 13 10 9 8 8 7 15 20 25 26 23 22 19 16 13 13 15
35 38 37 35 36 36 35 35 33 32 30 28 24 23 21 19 18 19 19 20 18 16 15 16 15 13 10 7 7 7 8 10 11 16 17 18 18 18 17 15 18 15 13
30 31 32 31 30 30 31 30 30 30 31 29 26 23 21 18 16 16 16 15 15 15 14 14 13 13 12 11 9 6 5 6 9 10 10 13 13 13 12 13 17 20 12
20 24 29 35 39 42 43 42 40 36 34 32 30 25 22 19 15 16 17 17 16 16 16 15 14 12 10 10 10 7 5 5 7 7 9 10 10 12 12 12 13 15 17
20 24 28 31 32 32 33 36 38 39 37 34 32 29 25 22 18 15 15 15 13 12 11 11 11 11 11 9 8 6 7 8 9 8 7 7 8 10 13 16 18 19 18
26 29 32 34 35 37 37 36 36 36 37 37 36 33 29 25 21 17 17 16 15 14 15 14 11 9 7 7 6 8 7 9 10 9 8 8 9 9 13 20 20 14 15
25 30 33 38 41 43 45 44 43 42 40 39 36 31 26 22 19 15 17 14 14 14 14 15 14 9 7 6 4 4 8 11 10 11 11 12 14 15 15 18 20 13 5
23 27 33 37 39 39 41 42 42 41 40 37 35 32 29 24 23 18 19 13 12 15 13 13 15 12 10 9 7 8 9 11 10 10 12 15 18 21 24 25 23 18 13
19 26 31 34 37 41 43 42 42 40 39 36 37 35 30 24 22 23 9 13 13 14 12 9 12 10 10 9 8 8 9 10 10 11 13 15 19 20 22 21 18 15 13
17 23 29 34 38 41 44 45 44 41 34 33 33 36 24 23 28 26 15 13 12 16 18 14 7 8 6 7 6 5 5 6 8 12 13 17 19 19 19 16 14 11 11
15 21 28 33 38 43 44 42 40 37 31 26 27 26 26 22 31 29 20 17 11 11 16 15 9 7 4 5 5 3 2 5 7 9 12 18 19 17 16 14 11 9 11
14 21 27 33 37 40 40 40 38 36 31 22 22 16 19 23 28 27 22 20 18 13 14 14 14 11 6 3 3 3 3 4 7 7 10 19 18 15 14 10 7 6 8
12 19 27 35 38 36 34 33 31 29 30 28 22 6 5 19 24 26 23 18 19 14 6 12 14 11 6 1 4 3 4 3 4 6 11 18 20 16 13 7 2 3 9
9 17 26 33 32 33 35 35 29 28 27 23 21 16 17 28 27 25 21 16 15 13 7 10 12 7 5 4 5 5 5 4 5 6 11 20 20 18 13 9 4 5 10
7 17 23 28 27 29 30 26 23 26 28 26 22 21 20 25 28 25 20 13 12 12 11 9 6 4 5 5 5 6 6 5 6 7 11 18 23 20 16 11 8 8 11
6 10 16 21 21 25 23 20 20 24 25 23 22 21 22 19 19 18 15 12 12 11 10 9 8 6 5 6 6 7 7 7 7 7 10 15 21 23 20 16 14 12 13
4 4 10 16 17 20 18 17 17 18 21 23 22 23 21 20 18 16 14 13 13 13 12 10 7 5 6 8 9 9 9 8 7 7 9 13 19 22 22 20 18 15 14
8 3 6 12 11 12 12 12 13 16 19 21 23 24 25 26 23 20 17 14 13 12 10 9 9 8 8 9 9 9 10 10 9 9 9 12 15 20 21 21 19 17 15
13 7 2 9 7 6 6 9 12 15 17 20 20 21 22 22 21 20 18 16 15 14 12 9 9 10 10 10 9 9 10 11 11 12 11 12 15 18 19 19 17 15 15
19 12 4 11 6 4 4 5 8 11 14 17 17 18 20 21 19 18 16 14 12 12 12 12 10 9 10 10 9 9 11 11 11 12 13 14 14 17 17 15 14 14 14
23 16 10 13 10 6 7 7 6 7 10 14 18 19 19 18 17 16 16 14 12 10 9 8 8 9 9 8 8 10 11 11 10 10 10 10 11 12 12 12 12 12 12
28 20 15 15 14 10 9 7 8 7 9 12 15 17 18 20 20 18 17 15 14 12 10 9 8 7 7 7 8 9 9 8 8 8 8 9 9 9 9 9 9 10 10
Wind_Direction_850mb
74 73 72 72 71 69 69 67 64 61 62 62 57 52 56 63 65 66 67 65 72 82 82 78 84 90 94 111 124 131 137 136 158 162 175 168 157 150 144 145 135 132 134
68 68 68 70 72 70 68 68 64 62 63 63 68 70 70 67 65 65 65 68 65 63 66 72 78 79 90 103 122 148 169 180 184 177 172 167 164 161 155 150 147 139 137
52 51 53 52 54 54 55 53 53 53 54 53 53 55 59 60 57 56 57 58 57 58 60 56 62 73 86 91 112 140 157 169 192 186 175 175 170 168 163 158 159 149 147
44 43 41 39 40 39 39 38 33 33 33 35 34 35 40 44 50 49 43 41 47 55 61 61 65 61 59 66 72 93 128 166 186 185 180 176 177 169 168 175 178 171 157
34 33 31 26 22 20 20 23 21 18 20 20 19 20 18 11 21 25 28 32 29 26 32 42 58 62 65 58 65 88 105 139 167 181 178 179 183 184 184 191 189 179 175
8 9 12 14 17 17 17 15 11 11 8 6 2 360 355 357 5 7 6 4 7 12 15 21 26 33 43 51 72 96 116 135 160 179 186 193 198 198 202 208 202 179 160
7 14 18 21 21 20 19 13 8 3 359 352 351 348 346 350 353 355 358 4 6 6 8 9 10 20 27 31 36 56 124 158 173 187 204 201 203 204 206 206 205 202 195
17 19 15 13 12 11 8 5 2 358 354 348 347 348 346 344 334 341 345 351 352 353 354 353 355 3 18 22 28 34 66 135 145 161 176 186 184 189 192 176 183 194 182
34 32 28 22 16 10 4 360 354 350 347 344 345 344 341 340 337 327 323 332 337 347 357 356 347 347 358 11 38 53 87 109 126 130 138 145 157 170 167 164 161 160 149
43 36 30 24 18 14 8 1 354 345 339 336 335 332 329 326 329 341 334 335 340 2 4 8 7 8 8 357 29 76 116 108 107 105 115 122 134 154 158 163 159 156 141
41 34 26 19 15 10 5 359 353 346 340 334 330 330 334 333 333 342 351 347 347 1 14 24 33 39 27 25 65 68 105 111 98 98 102 111 119 126 140 157 165 174 144
35 27 21 14 7 3 0 356 351 345 339 334 334 336 336 337 352 14 28 3 1 359 14 23 25 31 20 23 39 43 84 98 104 115 119 129 128 125 122 123 129 129 117
26 20 11 3 360 358 356 354 351 349 346 348 350 347 347 350 345 354 354 4 357 351 352 4 25 27 33 35 43 73 110 128 135 139 137 142 138 136 132 130 125 114 92
13 9 0 357 357 357 355 354 352 351 355 353 356 2 357 347 343 345 349 328 345 344 343 351 29 30 46 56 57 76 110 129 146 147 152 161 157 151 140 133 121 105 83
2 3 354 354 356 356 355 354 353 353 353 346 350 354 3 348 341 343 354 330 308 304 331 357 22 29 40 73 73 58 91 144 161 161 165 169 168 162 151 143 125 90 57
1 356 352 353 357 358 357 353 355 355 352 341 338 345 333 335 347 347 352 349 333 333 308 329 333 345 355 52 114 135 137 174 169 168 176 172 173 172 160 154 124 76 39
1 354 353 355 359 1 3 1 0 358 356 349 350 336 313 301 332 342 347 347 339 330 318 303 301 314 310 270 157 168 179 174 188 188 181 177 181 181 177 169 156 18 9
358 359 357 358 1 8 9 5 2 5 3 358 349 322 289 294 314 327 336 337 340 337 308 279 298 301 264 231 200 190 195 192 214 217 200 191 190 191 195 202 236 325 349
20 4 3 359 8 14 8 359 359 13 10 8 4 345 321 304 315 322 329 335 338 338 332 325 316 292 264 232 207 205 204 205 223 233 220 207 205 208 213 226 254 301 330
64 8 2 356 10 19 9 359 3 15 11 14 13 5 344 340 338 334 341 340 331 327 329 319 319 313 294 266 243 233 229 224 225 239 233 221 215 218 225 237 256 284 309
130 338 0 350 6 17 7 351 2 14 5 16 16 7 2 358 353 346 336 333 326 320 317 307 298 292 274 265 258 252 246 241 244 247 242 233 223 223 229 240 255 273 294
171 232 346 336 0 13 4 348 356 13 7 8 15 16 12 6 359 353 347 340 329 322 317 311 303 293 279 267 263 268 267 265 256 252 249 242 232 230 232 240 252 269 285
188 213 336 311 336 360 350 335 3 9 3 358 9 16 18 18 11 3 354 346 341 335 329 325 313 300 289 279 271 270 274 278 282 278 265 253 243 235 236 243 253 266 282
196 204 212 274 291 320 303 328 357 1 357 348 356 7 15 14 12 5 1 356 348 342 335 327 319 309 300 288 282 286 287 285 285 281 275 266 257 246 240 244 251 263 278
201 202 209 253 266 272 271 274 316 342 348 345 348 358 2 6 7 6 2 359 356 354 349 340 333 321 309 298 301 305 303 298 294 299 294 281 264 249 243 241 250 265 278
204 201 208 240 253 249 252 261 283 308 342 345 343 351 355 356 358 359 2 1 357 356 355 351 345 335 317 314 318 315 313 310 307 305 309 305 289 272 259 259 265 270 280